sat.trackr.live / text

‹ back to catalog

STARLINK-11556 [DTC]

NORAD 62838 · 2025-019K

PAYLOAD ACTIVE UNKNOWN

§ Identity

Operator
Country
US
Launch date
2025-01-27
Launch site
AFETR
Launch vehicle
Mass (kg)
RCS (m²)

Purposes: comms

External: N2YO · Heavens-Above · Gunter

§ Orbital elements

Epoch: 2026-05-25T04:25:14.346048Z

Period
91.67 min
Inclination
43.0027°
Eccentricity
0.0002709
Mean motion
15.70882446 rev/d
Perigee alt
354.5 km
Apogee alt
358.2 km
Semi-major
6,734.5 km
B*
1.5397e-3
RAAN
204.6906°
Arg perigee
262.9451°
Mean anomaly
97.1109°
Rev number
7,591

§ Raw data

STARLINK-11556 [DTC]1 62838U 25019K   26145.18419382  .00202375  00000+0  15397-2 0  99932 62838  43.0027 204.6906 0002709 262.9451  97.1109 15.70882446 75913

JSON: /api/v1/satellites/62838 · /tle

For live sub-satellite position, see the globe view (requires WebGL).

§ Visibility from observer

Set your observer location to see the next 7 days of passes ≥ 10°. The values pass through the URL so the page stays shareable.

No JS? Fill the form by hand. The geolocation button needs JavaScript.